星链-36473(STARLINK-36473)

导读

STARLINK-36473是美国SpaceX公司星链(Starlink)星座的一员,于2026年1月4日成功发射入轨,目前已在轨道正常运行,星链编号NORAD Catalog Number为67325。 作为星链巨型低轨卫星星座的组成部分,它依托近地轨道部署优势,旨在为全球提供高速宽带互联网服务,填补偏远地区网络覆盖空白,提升全球网络接入的普惠性,进一步扩充星链星座的服务规模与覆盖能力。

基本信息
目录编号:
67325
目录名称:
STARLINK-36473
国际标识:
2026-002W
轨道中心:
EARTH
卫星名称:
星链-36473
卫星全名:
星链-36473(STARLINK-36473)
卫星状态:
在轨 (已飞行160 天)
发射日期:
2026-01-04 UTC
国别 :
美国 (US)
星等 :
--
轨道信息
数据来源 国际轨道数据
星历时间: 2026-06-12T14:14:35+0800
23小时前
查看轨道信息
半长轴: 6861.109km
偏心率: 0.0000422
轨道倾角: 43.012°
近地点辐角 150.513°
升交点赤经 151.061°
平近点角 209.575°
近地点: 482.682km
远地点: 483.262km
周期: 94.265分钟
每日圈数: 15.27606
详细信息
固有亮度:
5
最大亮度:
2.5
卫星平台:
Starlink V1.0
覆盖范围:
全球
运营商:
太空探索技术公司
运营商所在国:
美国
制造商(研发单位):
太空探索技术公司
制造商所在国:
美国
使用方式:
暂无
卫星简介
Starlink 计划是 SpaceX 推出的全球卫星互联网项目,通过发射低轨道卫星,为全球尤其是偏远地区提供高速、低延迟的互联网服务。自 2019 年起,Starlink 已部署数千颗卫星,旨在缩小全球数字鸿沟,推动互联网普及。该项目还为军事、航空等行业提供通信支持,带来广泛经济效益。
2D轨道图
3D轨道图
轨道高度分析图
轨道倾角分析图
轨道综合分析图
查看轨道综合分析图